Time,TemperatureF,DewpointF,PressureIn,WindDirection,WindDirectionDegrees,WindSpeedMPH,WindSpeedGustMPH,Humidity,HourlyPrecipIn,Conditions,Clouds,dailyrainin,SoftwareType,DateUTC
2013-04-01 00:00:00,59.0,54.2,29.81,North,0,0.0,0.0,84,0.00,,,0.00,WUHU216HW,2013-04-01 04:00:00,
2013-04-01 00:05:00,59.2,54.4,29.81,North,0,0.0,0.0,84,0.00,,,0.00,WUHU216HW,2013-04-01 04:05:00,
2013-04-01 00:10:00,59.0,53.9,29.81,North,0,0.0,0.0,83,0.00,,,0.00,WUHU216HW,2013-04-01 04:10:00,
2013-04-01 00:12:00,59.0,53.9,29.81,North,0,0.0,0.0,83,0.00,,,0.00,WUHU216HW,2013-04-01 04:12:00,
2013-04-01 00:17:00,59.2,54.1,29.81,North,0,0.0,0.0,83,0.00,,,0.00,WUHU216HW,2013-04-01 04:17:00,
2013-04-01 00:22:00,59.0,53.9,29.81,North,0,0.0,0.0,83,0.00,,,0.00,WUHU216HW,2013-04-01 04:22:00,
2013-04-01 00:27:00,59.0,53.9,29.81,North,0,0.0,0.0,83,0.00,,,0.00,WUHU216HW,2013-04-01 04:27:00,
2013-04-01 00:32:00,58.9,54.0,29.81,North,0,0.0,0.0,84,0.00,,,0.00,WUHU216HW,2013-04-01 04:32:00,
2013-04-01 00:37:00,58.7,53.8,29.80,North,0,0.0,0.0,84,0.00,,,0.00,WUHU216HW,2013-04-01 04:37:00,
2013-04-01 00:42:00,58.7,53.8,29.80,North,0,0.0,0.0,84,0.00,,,0.00,WUHU216HW,2013-04-01 04:42:00,
2013-04-01 00:47:00,58.5,53.6,29.80,North,0,0.0,0.0,84,0.00,,,0.00,WUHU216HW,2013-04-01 04:47:00,
2013-04-01 00:52:00,58.3,53.8,29.81,North,0,0.0,0.0,85,0.00,,,0.00,WUHU216HW,2013-04-01 04:52:00,
2013-04-01 00:57:00,58.1,53.6,29.80,North,0,0.0,0.0,85,0.00,,,0.00,WUHU216HW,2013-04-01 04:57:00,
2013-04-01 01:02:00,58.1,53.6,29.80,North,0,0.0,0.0,85,0.00,,,0.00,WUHU216HW,2013-04-01 05:02:00,
2013-04-01 01:07:00,58.0,53.5,29.80,North,0,0.0,0.0,85,0.00,,,0.00,WUHU216HW,2013-04-01 05:07:00,
2013-04-01 01:12:00,58.0,53.8,29.80,North,0,0.0,0.0,86,0.00,,,0.00,WUHU216HW,2013-04-01 05:12:00,
2013-04-01 01:17:00,58.1,54.0,29.80,North,0,0.0,0.0,86,0.00,,,0.00,WUHU216HW,2013-04-01 05:17:00,
2013-04-01 01:22:00,58.1,54.0,29.80,North,0,0.0,0.0,86,0.00,,,0.00,WUHU216HW,2013-04-01 05:22:00,
2013-04-01 01:27:00,58.0,53.8,29.80,North,0,0.0,0.0,86,0.00,,,0.00,WUHU216HW,2013-04-01 05:27:00,
2013-04-01 01:32:00,57.8,53.7,29.79,North,0,0.0,0.0,86,0.00,,,0.00,WUHU216HW,2013-04-01 05:32:00,
2013-04-01 01:37:00,57.8,53.9,29.80,North,0,0.0,0.0,87,0.00,,,0.00,WUHU216HW,2013-04-01 05:37:00,
2013-04-01 01:42:00,57.8,54.3,29.79,North,0,0.0,0.0,88,0.00,,,0.00,WUHU216HW,2013-04-01 05:42:00,
2013-04-01 01:47:00,58.0,54.1,29.79,North,0,0.0,0.0,87,0.00,,,0.00,WUHU216HW,2013-04-01 05:47:00,
2013-04-01 01:52:00,58.0,54.1,29.79,North,0,0.0,0.0,87,0.00,,,0.00,WUHU216HW,2013-04-01 05:52:00,
2013-04-01 01:57:00,57.8,53.9,29.79,North,0,0.0,0.0,87,0.00,,,0.00,WUHU216HW,2013-04-01 05:57:00,
2013-04-01 02:02:00,57.6,53.7,29.79,North,0,0.0,0.0,87,0.00,,,0.00,WUHU216HW,2013-04-01 06:02:00,
2013-04-01 02:07:00,57.6,54.1,29.79,North,0,0.0,0.0,88,0.00,,,0.00,WUHU216HW,2013-04-01 06:07:00,
2013-04-01 02:12:00,57.6,54.1,29.80,North,0,0.0,0.0,88,0.00,,,0.00,WUHU216HW,2013-04-01 06:12:00,
2013-04-01 02:17:00,57.4,53.6,29.80,North,0,0.0,0.0,87,0.00,,,0.00,WUHU216HW,2013-04-01 06:17:00,
2013-04-01 02:22:00,57.4,53.6,29.80,North,0,0.0,0.0,87,0.00,,,0.00,WUHU216HW,2013-04-01 06:22:00,
2013-04-01 02:27:00,57.2,53.4,29.80,North,0,0.0,0.0,87,0.00,,,0.00,WUHU216HW,2013-04-01 06:27:00,
2013-04-01 02:32:00,57.2,53.7,29.80,North,0,0.0,0.0,88,0.00,,,0.00,WUHU216HW,2013-04-01 06:32:00,
2013-04-01 02:37:00,57.1,53.6,29.80,North,0,0.0,0.0,88,0.00,,,0.00,WUHU216HW,2013-04-01 06:37:00,
2013-04-01 02:42:00,57.2,54.0,29.80,North,0,0.0,0.0,89,0.00,,,0.00,WUHU216HW,2013-04-01 06:42:00,
2013-04-01 02:47:00,57.4,54.2,29.80,North,0,0.0,0.0,89,0.00,,,0.00,WUHU216HW,2013-04-01 06:47:00,
2013-04-01 02:52:00,57.6,54.1,29.80,North,0,0.0,0.0,88,0.00,,,0.00,WUHU216HW,2013-04-01 06:52:00,
2013-04-01 02:57:00,57.4,53.9,29.80,North,0,0.0,0.0,88,0.00,,,0.00,WUHU216HW,2013-04-01 06:57:00,
2013-04-01 03:02:00,57.6,54.1,29.80,North,0,0.0,0.0,88,0.00,,,0.00,WUHU216HW,2013-04-01 07:02:00,
2013-04-01 03:07:00,57.6,54.1,29.80,North,0,0.0,0.0,88,0.00,,,0.00,WUHU216HW,2013-04-01 07:07:00,
2013-04-01 03:12:00,57.4,53.9,29.80,North,0,0.0,0.0,88,0.00,,,0.00,WUHU216HW,2013-04-01 07:12:00,
2013-04-01 03:17:00,57.6,54.4,29.80,North,0,0.0,0.0,89,0.00,,,0.00,WUHU216HW,2013-04-01 07:17:00,
2013-04-01 03:22:00,57.6,54.1,29.80,North,0,0.0,0.0,88,0.00,,,0.00,WUHU216HW,2013-04-01 07:22:00,
2013-04-01 03:27:00,57.2,54.0,29.80,North,0,0.0,0.0,89,0.00,,,0.00,WUHU216HW,2013-04-01 07:27:00,
2013-04-01 03:32:00,57.4,54.2,29.79,North,0,0.0,0.0,89,0.00,,,0.00,WUHU216HW,2013-04-01 07:32:00,
2013-04-01 03:37:00,57.4,54.2,29.79,North,0,0.0,0.0,89,0.00,,,0.00,WUHU216HW,2013-04-01 07:37:00,
2013-04-01 03:42:00,57.4,54.2,29.80,North,0,0.0,0.0,89,0.00,,,0.00,WUHU216HW,2013-04-01 07:42:00,
2013-04-01 03:47:00,57.4,54.2,29.79,North,0,0.0,0.0,89,0.00,,,0.00,WUHU216HW,2013-04-01 07:47:00,
2013-04-01 03:52:00,57.4,54.2,29.79,North,0,0.0,0.0,89,0.00,,,0.00,WUHU216HW,2013-04-01 07:52:00,
2013-04-01 03:58:00,57.4,54.2,29.79,North,0,0.0,0.0,89,0.00,,,0.00,WUHU216HW,2013-04-01 07:58:00,
2013-04-01 04:03:00,57.4,54.2,29.79,North,0,0.0,0.0,89,0.00,,,0.00,WUHU216HW,2013-04-01 08:03:00,
2013-04-01 04:08:00,57.4,54.2,29.79,North,0,0.0,0.0,89,0.00,,,0.00,WUHU216HW,2013-04-01 08:08:00,
2013-04-01 04:13:00,57.4,54.2,29.79,North,0,0.0,0.0,89,0.00,,,0.00,WUHU216HW,2013-04-01 08:13:00,
2013-04-01 04:18:00,57.2,54.0,29.79,North,0,0.0,0.0,89,0.00,,,0.00,WUHU216HW,2013-04-01 08:18:00,
2013-04-01 04:23:00,57.4,54.2,29.79,North,0,0.0,0.0,89,0.00,,,0.00,WUHU216HW,2013-04-01 08:23:00,
2013-04-01 04:28:00,57.2,54.0,29.79,North,0,0.0,0.0,89,0.00,,,0.00,WUHU216HW,2013-04-01 08:28:00,
2013-04-01 04:33:00,57.2,54.0,29.79,North,0,0.0,0.0,89,0.00,,,0.00,WUHU216HW,2013-04-01 08:33:00,
2013-04-01 04:38:00,57.2,54.0,29.79,North,0,0.0,0.0,89,0.00,,,0.00,WUHU216HW,2013-04-01 08:38:00,
2013-04-01 04:43:00,57.2,54.0,29.79,North,0,0.0,0.0,89,0.00,,,0.00,WUHU216HW,2013-04-01 08:43:00,
2013-04-01 04:48:00,57.2,54.0,29.79,North,0,0.0,0.0,89,0.00,,,0.00,WUHU216HW,2013-04-01 08:48:00,
2013-04-01 04:53:00,57.2,54.0,29.79,North,0,0.0,0.0,89,0.00,,,0.00,WUHU216HW,2013-04-01 08:53:00,
2013-04-01 04:58:00,57.2,54.0,29.78,North,0,0.0,0.0,89,0.00,,,0.00,WUHU216HW,2013-04-01 08:58:00,
2013-04-01 05:03:00,57.2,54.0,29.79,North,0,0.0,0.0,89,0.00,,,0.00,WUHU216HW,2013-04-01 09:03:00,
2013-04-01 05:08:00,56.9,53.6,29.79,North,0,0.0,0.0,89,0.00,,,0.00,WUHU216HW,2013-04-01 09:08:00,
2013-04-01 05:13:00,56.9,53.6,29.78,North,0,0.0,0.0,89,0.00,,,0.00,WUHU216HW,2013-04-01 09:13:00,
2013-04-01 05:18:00,56.7,53.5,29.79,North,0,0.0,0.0,89,0.00,,,0.00,WUHU216HW,2013-04-01 09:18:00,
2013-04-01 05:23:00,56.5,53.3,29.79,North,0,0.0,0.0,89,0.00,,,0.00,WUHU216HW,2013-04-01 09:23:00,
2013-04-01 05:28:00,56.5,53.3,29.79,North,0,0.0,0.0,89,0.00,,,0.00,WUHU216HW,2013-04-01 09:28:00,
2013-04-01 05:53:00,55.1,52.2,29.80,North,0,0.0,0.0,90,0.00,,,0.00,WUHU216HW,2013-04-01 09:53:00,
2013-04-01 05:58:00,54.9,52.0,29.80,North,0,0.0,0.0,90,0.00,,,0.00,WUHU216HW,2013-04-01 09:58:00,
2013-04-01 06:03:00,54.7,51.8,29.80,North,0,0.0,0.0,90,0.00,,,0.00,WUHU216HW,2013-04-01 10:03:00,
2013-04-01 06:08:00,54.7,51.8,29.80,North,0,0.0,0.0,90,0.00,,,0.00,WUHU216HW,2013-04-01 10:08:00,
2013-04-01 06:13:00,54.5,51.9,29.80,North,0,0.0,0.0,91,0.00,,,0.00,WUHU216HW,2013-04-01 10:13:00,
2013-04-01 06:18:00,54.4,51.8,29.81,North,0,0.0,0.0,91,0.00,,,0.00,WUHU216HW,2013-04-01 10:18:00,
2013-04-01 06:23:00,54.4,51.8,29.81,North,0,0.0,0.0,91,0.00,,,0.00,WUHU216HW,2013-04-01 10:23:00,
2013-04-01 06:28:00,54.4,51.8,29.81,North,0,0.0,0.0,91,0.00,,,0.00,WUHU216HW,2013-04-01 10:28:00,
2013-04-01 06:33:00,54.2,51.6,29.81,North,0,0.0,0.0,91,0.00,,,0.00,WUHU216HW,2013-04-01 10:33:00,
2013-04-01 06:38:00,54.0,51.4,29.81,North,0,0.0,0.0,91,0.00,,,0.00,WUHU216HW,2013-04-01 10:38:00,
2013-04-01 06:43:00,54.0,51.4,29.82,North,0,0.0,0.0,91,0.00,,,0.00,WUHU216HW,2013-04-01 10:43:00,
2013-04-01 06:48:00,54.0,51.4,29.82,North,0,0.0,0.0,91,0.00,,,0.00,WUHU216HW,2013-04-01 10:48:00,
2013-04-01 06:53:00,53.8,51.2,29.82,North,0,0.0,0.0,91,0.00,,,0.00,WUHU216HW,2013-04-01 10:53:00,
2013-04-01 06:58:00,53.8,51.2,29.82,North,0,0.0,0.0,91,0.00,,,0.00,WUHU216HW,2013-04-01 10:58:00,
2013-04-01 07:03:00,53.6,51.0,29.82,North,0,0.0,0.0,91,0.00,,,0.00,WUHU216HW,2013-04-01 11:03:00,
2013-04-01 07:08:00,53.6,51.0,29.83,North,0,0.0,0.0,91,0.00,,,0.00,WUHU216HW,2013-04-01 11:08:00,
2013-04-01 07:13:00,53.5,50.9,29.83,North,0,0.0,0.0,91,0.00,,,0.00,WUHU216HW,2013-04-01 11:13:00,
2013-04-01 07:18:00,53.1,50.5,29.83,North,0,0.0,0.0,91,0.00,,,0.00,WUHU216HW,2013-04-01 11:18:00,
2013-04-01 07:23:00,52.9,50.3,29.83,North,0,0.0,0.0,91,0.00,,,0.00,WUHU216HW,2013-04-01 11:23:00,
2013-04-01 07:28:00,52.7,50.1,29.83,North,0,0.0,0.0,91,0.00,,,0.00,WUHU216HW,2013-04-01 11:28:00,
2013-04-01 07:33:00,52.7,50.1,29.84,North,0,0.0,0.0,91,0.00,,,0.00,WUHU216HW,2013-04-01 11:33:00,
2013-04-01 07:38:00,52.6,50.0,29.84,North,0,0.0,0.0,91,0.00,,,0.00,WUHU216HW,2013-04-01 11:38:00,
2013-04-01 07:43:00,52.4,49.8,29.84,North,0,0.0,0.0,91,0.00,,,0.00,WUHU216HW,2013-04-01 11:43:00,
2013-04-01 07:48:00,52.4,49.8,29.85,North,0,0.0,0.0,91,0.00,,,0.00,WUHU216HW,2013-04-01 11:48:00,
2013-04-01 07:53:00,52.2,49.6,29.85,North,0,0.0,0.0,91,0.00,,,0.00,WUHU216HW,2013-04-01 11:53:00,
2013-04-01 07:58:00,52.2,49.6,29.85,North,0,0.0,0.0,91,0.00,,,0.00,WUHU216HW,2013-04-01 11:58:00,
2013-04-01 08:03:00,52.2,49.9,29.86,North,0,0.0,0.0,92,0.00,,,0.00,WUHU216HW,2013-04-01 12:03:00,
2013-04-01 08:08:00,52.2,49.6,29.86,North,0,0.0,0.0,91,0.00,,,0.00,WUHU216HW,2013-04-01 12:08:00,
2013-04-01 08:13:00,52.2,49.6,29.86,North,0,0.0,0.0,91,0.00,,,0.00,WUHU216HW,2013-04-01 12:13:00,
2013-04-01 08:18:00,52.2,49.6,29.86,North,0,0.0,0.0,91,0.00,,,0.00,WUHU216HW,2013-04-01 12:18:00,
2013-04-01 08:23:00,52.0,49.4,29.86,North,0,0.0,0.0,91,0.00,,,0.00,WUHU216HW,2013-04-01 12:23:00,
2013-04-01 08:28:00,51.8,49.2,29.86,North,0,0.0,0.0,91,0.00,,,0.00,WUHU216HW,2013-04-01 12:28:00,
2013-04-01 08:33:00,52.0,49.7,29.87,North,0,0.0,0.0,92,0.00,,,0.00,WUHU216HW,2013-04-01 12:33:00,
2013-04-01 08:38:00,52.2,49.9,29.87,North,0,0.0,0.0,92,0.00,,,0.00,WUHU216HW,2013-04-01 12:38:00,
2013-04-01 08:43:00,52.6,50.2,29.87,North,0,0.0,0.0,92,0.00,,,0.00,WUHU216HW,2013-04-01 12:43:00,
2013-04-01 08:48:00,52.7,50.4,29.88,North,0,0.0,0.0,92,0.00,,,0.00,WUHU216HW,2013-04-01 12:48:00,
2013-04-01 08:53:00,52.9,50.6,29.88,North,0,0.0,0.0,92,0.00,,,0.00,WUHU216HW,2013-04-01 12:53:00,
2013-04-01 08:58:00,53.1,50.8,29.88,North,0,0.0,0.0,92,0.00,,,0.00,WUHU216HW,2013-04-01 12:58:00,
2013-04-01 09:03:00,53.5,51.1,29.88,North,0,0.0,0.0,92,0.00,,,0.00,WUHU216HW,2013-04-01 13:03:00,
2013-04-01 09:08:00,53.6,51.0,29.88,North,0,0.0,0.0,91,0.00,,,0.00,WUHU216HW,2013-04-01 13:08:00,
2013-04-01 09:13:00,54.0,51.4,29.88,North,0,0.0,0.0,91,0.00,,,0.00,WUHU216HW,2013-04-01 13:13:00,
2013-04-01 09:18:00,54.2,51.6,29.88,North,0,0.0,0.0,91,0.00,,,0.00,WUHU216HW,2013-04-01 13:18:00,
2013-04-01 09:23:00,54.4,51.5,29.88,North,0,0.0,0.0,90,0.00,,,0.00,WUHU216HW,2013-04-01 13:23:00,
2013-04-01 09:28:00,54.5,51.3,29.88,North,0,0.0,0.0,89,0.00,,,0.00,WUHU216HW,2013-04-01 13:28:00,
2013-04-01 09:34:00,54.7,51.2,29.89,North,0,0.0,0.0,88,0.00,,,0.00,WUHU216HW,2013-04-01 13:34:00,
2013-04-01 09:38:00,55.1,51.2,29.89,North,0,0.0,0.0,87,0.00,,,0.00,WUHU216HW,2013-04-01 13:38:00,
2013-04-01 09:44:00,55.3,51.4,29.89,North,0,0.0,0.0,87,0.00,,,0.00,WUHU216HW,2013-04-01 13:44:00,
2013-04-01 09:49:00,55.4,51.3,29.89,North,0,0.0,0.0,86,0.00,,,0.00,WUHU216HW,2013-04-01 13:49:00,
2013-04-01 09:54:00,55.8,51.7,29.89,North,0,0.0,0.0,86,0.00,,,0.00,WUHU216HW,2013-04-01 13:54:00,
2013-04-01 09:59:00,56.2,51.3,29.89,North,0,0.0,0.0,84,0.00,,,0.00,WUHU216HW,2013-04-01 13:59:00,
2013-04-01 10:04:00,56.5,51.4,29.89,North,0,0.0,0.0,83,0.00,,,0.00,WUHU216HW,2013-04-01 14:04:00,
2013-04-01 10:09:00,56.7,51.8,29.89,North,0,0.0,0.0,84,0.00,,,0.00,WUHU216HW,2013-04-01 14:09:00,
2013-04-01 10:14:00,57.1,52.2,29.89,North,0,0.0,0.0,84,0.00,,,0.00,WUHU216HW,2013-04-01 14:14:00,
2013-04-01 10:19:00,57.6,51.9,29.90,North,0,0.0,0.0,81,0.00,,,0.00,WUHU216HW,2013-04-01 14:19:00,
2013-04-01 10:24:00,58.0,51.8,29.90,North,0,0.0,0.0,80,0.00,,,0.00,WUHU216HW,2013-04-01 14:24:00,
2013-04-01 10:29:00,58.5,51.7,29.90,North,0,0.0,0.0,78,0.00,,,0.00,WUHU216HW,2013-04-01 14:29:00,
2013-04-01 10:34:00,59.0,52.6,29.89,North,0,0.0,0.0,79,0.00,,,0.00,WUHU216HW,2013-04-01 14:34:00,
2013-04-01 10:39:00,59.8,51.8,29.89,North,0,0.0,0.0,75,0.00,,,0.00,WUHU216HW,2013-04-01 14:39:00,
2013-04-01 10:44:00,60.3,51.7,29.89,North,0,0.0,0.0,73,0.00,,,0.00,WUHU216HW,2013-04-01 14:44:00,
2013-04-01 10:49:00,60.8,49.5,29.89,North,0,0.0,0.0,66,0.00,,,0.00,WUHU216HW,2013-04-01 14:49:00,
2013-04-01 10:54:00,61.2,49.8,29.90,North,0,0.0,0.0,66,0.00,,,0.00,WUHU216HW,2013-04-01 14:54:00,
2013-04-01 10:59:00,61.6,48.1,29.90,North,0,0.0,0.0,61,0.00,,,0.00,WUHU216HW,2013-04-01 14:59:00,
2013-04-01 11:04:00,61.9,45.6,29.90,North,0,0.0,0.0,55,0.00,,,0.00,WUHU216HW,2013-04-01 15:04:00,
2013-04-01 11:09:00,62.3,46.8,29.90,North,0,0.0,0.0,57,0.00,,,0.00,WUHU216HW,2013-04-01 15:09:00,
2013-04-01 11:14:00,62.6,45.2,29.90,North,0,0.0,0.0,53,0.00,,,0.00,WUHU216HW,2013-04-01 15:14:00,
2013-04-01 11:19:00,63.0,45.0,29.90,North,0,0.0,0.0,52,0.00,,,0.00,WUHU216HW,2013-04-01 15:19:00,
2013-04-01 11:24:00,63.5,45.6,29.90,North,0,0.0,0.0,52,0.00,,,0.00,WUHU216HW,2013-04-01 15:24:00,
2013-04-01 11:29:00,63.9,43.1,29.91,North,0,0.0,0.0,47,0.00,,,0.00,WUHU216HW,2013-04-01 15:29:00,
2013-04-01 11:34:00,63.9,43.8,29.91,North,0,0.0,0.0,48,0.00,,,0.00,WUHU216HW,2013-04-01 15:34:00,
2013-04-01 11:39:00,64.3,44.0,29.91,North,0,0.0,0.0,48,0.00,,,0.00,WUHU216HW,2013-04-01 15:39:00,
2013-04-01 11:44:00,64.6,43.2,29.91,North,0,0.0,0.0,46,0.00,,,0.00,WUHU216HW,2013-04-01 15:44:00,
2013-04-01 11:49:00,64.8,42.9,29.91,North,0,0.0,0.0,45,0.00,,,0.00,WUHU216HW,2013-04-01 15:49:00,
2013-04-01 11:54:00,65.2,43.7,29.91,North,0,0.0,0.0,46,0.00,,,0.00,WUHU216HW,2013-04-01 15:54:00,
2013-04-01 11:59:00,65.5,43.5,29.91,North,0,0.0,0.0,45,0.00,,,0.00,WUHU216HW,2013-04-01 15:59:00,
2013-04-01 12:04:00,65.9,43.3,29.91,North,0,0.0,0.0,44,0.00,,,0.00,WUHU216HW,2013-04-01 16:04:00,
2013-04-01 12:09:00,65.9,40.1,29.91,North,0,0.0,0.0,39,0.00,,,0.00,WUHU216HW,2013-04-01 16:09:00,
2013-04-01 12:14:00,66.2,41.2,29.91,North,0,0.0,0.0,40,0.00,,,0.00,WUHU216HW,2013-04-01 16:14:00,
2013-04-01 12:19:00,66.4,43.2,29.91,North,0,0.0,0.0,43,0.00,,,0.00,WUHU216HW,2013-04-01 16:19:00,
2013-04-01 12:24:00,67.1,44.4,29.91,North,0,0.0,0.0,44,0.00,,,0.00,WUHU216HW,2013-04-01 16:24:00,
2013-04-01 12:29:00,67.3,42.8,29.91,North,0,0.0,0.0,41,0.00,,,0.00,WUHU216HW,2013-04-01 16:29:00,
2013-04-01 12:34:00,67.5,41.6,29.91,North,0,0.0,0.0,39,0.00,,,0.00,WUHU216HW,2013-04-01 16:34:00,
2013-04-01 12:39:00,67.3,41.5,29.91,North,0,0.0,0.0,39,0.00,,,0.00,WUHU216HW,2013-04-01 16:39:00,
2013-04-01 12:44:00,68.0,42.1,29.91,North,0,0.0,0.0,39,0.00,,,0.00,WUHU216HW,2013-04-01 16:44:00,
2013-04-01 12:49:00,67.9,42.7,29.91,North,0,0.0,0.0,40,0.00,,,0.00,WUHU216HW,2013-04-01 16:49:00,
2013-04-01 12:54:00,67.7,41.8,29.91,North,0,0.0,0.0,39,0.00,,,0.00,WUHU216HW,2013-04-01 16:54:00,
2013-04-01 12:59:00,68.8,42.0,29.91,North,0,0.0,0.0,38,0.00,,,0.00,WUHU216HW,2013-04-01 16:59:00,
2013-04-01 13:04:00,69.1,43.8,29.91,North,0,0.0,0.0,40,0.00,,,0.00,WUHU216HW,2013-04-01 17:04:00,
2013-04-01 13:09:00,69.1,43.1,29.91,North,0,0.0,0.0,39,0.00,,,0.00,WUHU216HW,2013-04-01 17:09:00,
2013-04-01 13:14:00,69.8,44.5,29.91,North,0,0.0,0.0,40,0.00,,,0.00,WUHU216HW,2013-04-01 17:14:00,
2013-04-01 13:19:00,70.2,44.8,29.91,North,0,0.0,0.0,40,0.00,,,0.00,WUHU216HW,2013-04-01 17:19:00,
2013-04-01 13:24:00,69.8,43.0,29.91,North,0,0.0,0.0,38,0.00,,,0.00,WUHU216HW,2013-04-01 17:24:00,
2013-04-01 13:29:00,69.5,42.0,29.91,North,0,0.0,0.0,37,0.00,,,0.00,WUHU216HW,2013-04-01 17:29:00,
2013-04-01 13:34:00,68.9,43.7,29.91,North,0,0.0,0.0,40,0.00,,,0.00,WUHU216HW,2013-04-01 17:34:00,
2013-04-01 13:39:00,68.8,43.5,29.91,North,0,0.0,0.0,40,0.00,,,0.00,WUHU216HW,2013-04-01 17:39:00,
2013-04-01 13:44:00,69.8,43.8,29.91,North,0,0.0,0.0,39,0.00,,,0.00,WUHU216HW,2013-04-01 17:44:00,
2013-04-01 13:49:00,70.2,41.1,29.91,North,0,0.0,0.0,35,0.00,,,0.00,WUHU216HW,2013-04-01 17:49:00,
2013-04-01 13:54:00,69.8,44.5,29.91,North,0,0.0,0.0,40,0.00,,,0.00,WUHU216HW,2013-04-01 17:54:00,
2013-04-01 13:59:00,70.6,45.7,29.91,North,0,0.0,0.0,41,0.00,,,0.00,WUHU216HW,2013-04-01 17:59:00,
2013-04-01 14:04:00,70.7,43.8,29.90,North,0,0.0,0.0,38,0.00,,,0.00,WUHU216HW,2013-04-01 18:04:00,
2013-04-01 14:09:00,70.7,41.6,29.90,North,0,0.0,0.0,35,0.00,,,0.00,WUHU216HW,2013-04-01 18:09:00,
2013-04-01 14:14:00,71.1,43.4,29.90,North,0,0.0,0.0,37,0.00,,,0.00,WUHU216HW,2013-04-01 18:14:00,
2013-04-01 14:19:00,71.3,43.6,29.90,North,0,0.0,0.0,37,0.00,,,0.00,WUHU216HW,2013-04-01 18:19:00,
2013-04-01 14:24:00,70.0,41.0,29.90,North,0,0.0,0.0,35,0.00,,,0.00,WUHU216HW,2013-04-01 18:24:00,
2013-04-01 14:29:00,69.7,41.3,29.90,North,0,0.0,0.0,36,0.00,,,0.00,WUHU216HW,2013-04-01 18:29:00,
2013-04-01 14:34:00,69.7,42.9,29.90,North,0,0.0,0.0,38,0.00,,,0.00,WUHU216HW,2013-04-01 18:34:00,
2013-04-01 14:39:00,70.0,44.7,29.90,North,0,0.0,0.0,40,0.00,,,0.00,WUHU216HW,2013-04-01 18:39:00,
2013-04-01 14:44:00,70.6,41.4,29.90,North,0,0.0,0.0,35,0.00,,,0.00,WUHU216HW,2013-04-01 18:44:00,
2013-04-01 14:49:00,70.0,43.1,29.90,North,0,0.0,0.0,38,0.00,,,0.00,WUHU216HW,2013-04-01 18:49:00,
2013-04-01 14:54:00,70.7,43.8,29.90,North,0,0.0,0.0,38,0.00,,,0.00,WUHU216HW,2013-04-01 18:54:00,
2013-04-01 14:59:00,70.6,41.4,29.90,North,0,0.0,0.0,35,0.00,,,0.00,WUHU216HW,2013-04-01 18:59:00,
2013-04-01 15:04:00,70.9,42.5,29.90,North,0,0.0,0.0,36,0.00,,,0.00,WUHU216HW,2013-04-01 19:04:00,
2013-04-01 15:09:00,70.6,41.4,29.90,North,0,0.0,0.0,35,0.00,,,0.00,WUHU216HW,2013-04-01 19:09:00,
2013-04-01 15:14:00,70.2,43.3,29.90,North,0,0.0,0.0,38,0.00,,,0.00,WUHU216HW,2013-04-01 19:14:00,
2013-04-01 15:19:00,70.2,43.3,29.90,North,0,0.0,0.0,38,0.00,,,0.00,WUHU216HW,2013-04-01 19:19:00,
2013-04-01 15:24:00,70.7,44.6,29.90,North,0,0.0,0.0,39,0.00,,,0.00,WUHU216HW,2013-04-01 19:24:00,
2013-04-01 15:29:00,70.9,44.7,29.89,North,0,0.0,0.0,39,0.00,,,0.00,WUHU216HW,2013-04-01 19:29:00,
2013-04-01 15:34:00,71.1,44.8,29.89,North,0,0.0,0.0,39,0.00,,,0.00,WUHU216HW,2013-04-01 19:34:00,
2013-04-01 15:39:00,71.1,44.1,29.89,North,0,0.0,0.0,38,0.00,,,0.00,WUHU216HW,2013-04-01 19:39:00,
2013-04-01 15:44:00,70.6,44.4,29.89,North,0,0.0,0.0,39,0.00,,,0.00,WUHU216HW,2013-04-01 19:44:00,
2013-04-01 15:49:00,71.1,45.6,29.89,North,0,0.0,0.0,40,0.00,,,0.00,WUHU216HW,2013-04-01 19:49:00,
2013-04-01 15:54:00,71.8,45.6,29.89,North,0,0.0,0.0,39,0.00,,,0.00,WUHU216HW,2013-04-01 19:54:00,
2013-04-01 15:59:00,71.5,45.9,29.89,North,0,0.0,0.0,40,0.00,,,0.00,WUHU216HW,2013-04-01 19:59:00,
2013-04-01 16:04:00,71.1,46.2,29.89,North,0,0.0,0.0,41,0.00,,,0.00,WUHU216HW,2013-04-01 20:04:00,
2013-04-01 16:09:00,71.3,45.0,29.89,North,0,0.0,0.0,39,0.00,,,0.00,WUHU216HW,2013-04-01 20:09:00,
2013-04-01 16:14:00,70.6,44.4,29.89,North,0,0.0,0.0,39,0.00,,,0.00,WUHU216HW,2013-04-01 20:14:00,
2013-04-01 16:19:00,69.8,44.5,29.89,North,0,0.0,0.0,40,0.00,,,0.00,WUHU216HW,2013-04-01 20:19:00,
2013-04-01 16:24:00,69.5,43.4,29.89,North,0,0.0,0.0,39,0.00,,,0.00,WUHU216HW,2013-04-01 20:24:00,
2013-04-01 16:29:00,69.3,44.0,29.89,North,0,0.0,0.0,40,0.00,,,0.00,WUHU216HW,2013-04-01 20:29:00,
2013-04-01 16:34:00,70.6,45.7,29.88,North,0,0.0,0.0,41,0.00,,,0.00,WUHU216HW,2013-04-01 20:34:00,
2013-04-01 16:39:00,71.3,45.0,29.88,North,0,0.0,0.0,39,0.00,,,0.00,WUHU216HW,2013-04-01 20:39:00,
2013-04-01 16:44:00,72.0,44.2,29.88,North,0,0.0,0.0,37,0.00,,,0.00,WUHU216HW,2013-04-01 20:44:00,
2013-04-01 16:49:00,72.0,42.7,29.89,North,0,0.0,0.0,35,0.00,,,0.00,WUHU216HW,2013-04-01 20:49:00,
2013-04-01 16:54:00,72.0,44.2,29.88,North,0,0.0,0.0,37,0.00,,,0.00,WUHU216HW,2013-04-01 20:54:00,
2013-04-01 16:59:00,72.5,43.1,29.88,North,0,0.0,0.0,35,0.00,,,0.00,WUHU216HW,2013-04-01 20:59:00,
2013-04-01 17:04:00,72.5,44.6,29.88,North,0,0.0,0.0,37,0.00,,,0.00,WUHU216HW,2013-04-01 21:04:00,
2013-04-01 17:09:00,73.1,45.1,29.88,North,0,0.0,0.0,37,0.00,,,0.00,WUHU216HW,2013-04-01 21:09:00,
2013-04-01 17:14:00,72.0,42.7,29.88,North,0,0.0,0.0,35,0.00,,,0.00,WUHU216HW,2013-04-01 21:14:00,
2013-04-01 17:19:00,71.6,43.8,29.88,North,0,0.0,0.0,37,0.00,,,0.00,WUHU216HW,2013-04-01 21:19:00,
2013-04-01 17:24:00,71.5,42.9,29.88,North,0,0.0,0.0,36,0.00,,,0.00,WUHU216HW,2013-04-01 21:24:00,
2013-04-01 17:29:00,71.3,43.6,29.88,North,0,0.0,0.0,37,0.00,,,0.00,WUHU216HW,2013-04-01 21:29:00,
2013-04-01 17:34:00,71.3,43.6,29.88,North,0,0.0,0.0,37,0.00,,,0.00,WUHU216HW,2013-04-01 21:34:00,
2013-04-01 17:39:00,70.7,43.0,29.89,North,0,0.0,0.0,37,0.00,,,0.00,WUHU216HW,2013-04-01 21:39:00,
2013-04-01 17:44:00,70.4,44.2,29.88,North,0,0.0,0.0,39,0.00,,,0.00,WUHU216HW,2013-04-01 21:44:00,
2013-04-01 17:49:00,70.2,44.0,29.88,North,0,0.0,0.0,39,0.00,,,0.00,WUHU216HW,2013-04-01 21:49:00,
2013-04-01 17:54:00,70.2,44.8,29.88,North,0,0.0,0.0,40,0.00,,,0.00,WUHU216HW,2013-04-01 21:54:00,
2013-04-01 17:59:00,70.4,44.9,29.88,North,0,0.0,0.0,40,0.00,,,0.00,WUHU216HW,2013-04-01 21:59:00,
2013-04-01 18:04:00,71.3,45.0,29.88,North,0,0.0,0.0,39,0.00,,,0.00,WUHU216HW,2013-04-01 22:04:00,
2013-04-01 18:09:00,71.6,44.7,29.88,North,0,0.0,0.0,38,0.00,,,0.00,WUHU216HW,2013-04-01 22:09:00,
2013-04-01 18:14:00,72.0,45.6,29.88,North,0,0.0,0.0,39,0.00,,,0.00,WUHU216HW,2013-04-01 22:14:00,
2013-04-01 18:19:00,71.6,44.7,29.88,North,0,0.0,0.0,38,0.00,,,0.00,WUHU216HW,2013-04-01 22:19:00,
2013-04-01 18:24:00,70.9,43.9,29.88,North,0,0.0,0.0,38,0.00,,,0.00,WUHU216HW,2013-04-01 22:24:00,
2013-04-01 18:29:00,70.6,43.7,29.88,North,0,0.0,0.0,38,0.00,,,0.00,WUHU216HW,2013-04-01 22:29:00,
2013-04-01 18:34:00,70.6,42.9,29.88,North,0,0.0,0.0,37,0.00,,,0.00,WUHU216HW,2013-04-01 22:34:00,
2013-04-01 18:39:00,70.0,43.9,29.88,North,0,0.0,0.0,39,0.00,,,0.00,WUHU216HW,2013-04-01 22:39:00,
2013-04-01 18:44:00,69.8,43.8,29.88,North,0,0.0,0.0,39,0.00,,,0.00,WUHU216HW,2013-04-01 22:44:00,
2013-04-01 18:49:00,70.0,43.9,29.88,North,0,0.0,0.0,39,0.00,,,0.00,WUHU216HW,2013-04-01 22:49:00,
2013-04-01 18:54:00,69.5,43.4,29.88,North,0,0.0,0.0,39,0.00,,,0.00,WUHU216HW,2013-04-01 22:54:00,
2013-04-01 18:59:00,68.6,43.3,29.88,North,0,0.0,0.0,40,0.00,,,0.00,WUHU216HW,2013-04-01 22:59:00,
2013-04-01 19:04:00,68.2,43.6,29.88,North,0,0.0,0.0,41,0.00,,,0.00,WUHU216HW,2013-04-01 23:04:00,
2013-04-01 19:09:00,67.7,42.5,29.88,North,0,0.0,0.0,40,0.00,,,0.00,WUHU216HW,2013-04-01 23:09:00,
2013-04-01 19:14:00,67.1,43.8,29.88,North,0,0.0,0.0,43,0.00,,,0.00,WUHU216HW,2013-04-01 23:14:00,
2013-04-01 19:19:00,66.8,43.5,29.88,North,0,0.0,0.0,43,0.00,,,0.00,WUHU216HW,2013-04-01 23:19:00,
2013-04-01 19:24:00,66.1,44.0,29.88,North,0,0.0,0.0,45,0.00,,,0.00,WUHU216HW,2013-04-01 23:24:00,
2013-04-01 19:29:00,65.7,43.1,29.88,North,0,0.0,0.0,44,0.00,,,0.00,WUHU216HW,2013-04-01 23:29:00,
2013-04-01 19:34:00,65.5,43.5,29.88,North,0,0.0,0.0,45,0.00,,,0.00,WUHU216HW,2013-04-01 23:34:00,
2013-04-01 19:39:00,65.2,44.9,29.88,North,0,0.0,0.0,48,0.00,,,0.00,WUHU216HW,2013-04-01 23:39:00,
2013-04-01 19:44:00,64.8,43.4,29.88,North,0,0.0,0.0,46,0.00,,,0.00,WUHU216HW,2013-04-01 23:44:00,
2013-04-01 19:49:00,64.4,43.7,29.88,North,0,0.0,0.0,47,0.00,,,0.00,WUHU216HW,2013-04-01 23:49:00,
2013-04-01 19:54:00,63.9,43.8,29.88,North,0,0.0,0.0,48,0.00,,,0.00,WUHU216HW,2013-04-01 23:54:00,
2013-04-01 19:59:00,63.7,44.1,29.88,North,0,0.0,0.0,49,0.00,,,0.00,WUHU216HW,2013-04-01 23:59:00,
2013-04-01 20:04:00,63.4,44.4,29.88,North,0,0.0,0.0,50,0.00,,,0.00,WUHU216HW,2013-04-02 00:04:00,
2013-04-01 20:09:00,63.2,44.2,29.88,North,0,0.0,0.0,50,0.00,,,0.00,WUHU216HW,2013-04-02 00:09:00,
2013-04-01 20:14:00,63.0,43.5,29.88,North,0,0.0,0.0,49,0.00,,,0.00,WUHU216HW,2013-04-02 00:14:00,
2013-04-01 20:19:00,62.6,43.7,29.88,North,0,0.0,0.0,50,0.00,,,0.00,WUHU216HW,2013-04-02 00:19:00,
2013-04-01 20:24:00,61.9,43.1,29.89,North,0,0.0,0.0,50,0.00,,,0.00,WUHU216HW,2013-04-02 00:24:00,
2013-04-01 20:29:00,61.6,43.3,29.89,North,0,0.0,0.0,51,0.00,,,0.00,WUHU216HW,2013-04-02 00:29:00,
2013-04-01 20:34:00,61.2,42.9,29.89,North,0,0.0,0.0,51,0.00,,,0.00,WUHU216HW,2013-04-02 00:34:00,
2013-04-01 20:39:00,61.0,43.7,29.90,North,0,0.0,0.0,53,0.00,,,0.00,WUHU216HW,2013-04-02 00:39:00,
2013-04-01 20:44:00,60.7,43.9,29.90,North,0,0.0,0.0,54,0.00,,,0.00,WUHU216HW,2013-04-02 00:44:00,
2013-04-01 20:49:00,60.3,43.1,29.90,North,0,0.0,0.0,53,0.00,,,0.00,WUHU216HW,2013-04-02 00:49:00,
2013-04-01 20:54:00,60.1,43.4,29.90,North,0,0.0,0.0,54,0.00,,,0.00,WUHU216HW,2013-04-02 00:54:00,
2013-04-01 20:59:00,59.9,43.2,29.90,North,0,0.0,0.0,54,0.00,,,0.00,WUHU216HW,2013-04-02 00:59:00,
2013-04-01 21:04:00,59.6,42.8,29.91,North,0,0.0,0.0,54,0.00,,,0.00,WUHU216HW,2013-04-02 01:04:00,
2013-04-01 21:09:00,59.4,43.7,29.91,North,0,0.0,0.0,56,0.00,,,0.00,WUHU216HW,2013-04-02 01:09:00,
2013-04-01 21:14:00,59.4,43.7,29.91,North,0,0.0,0.0,56,0.00,,,0.00,WUHU216HW,2013-04-02 01:14:00,
2013-04-01 21:19:00,59.0,42.8,29.91,North,0,0.0,0.0,55,0.00,,,0.00,WUHU216HW,2013-04-02 01:19:00,
2013-04-01 21:24:00,59.0,43.3,29.91,North,0,0.0,0.0,56,0.00,,,0.00,WUHU216HW,2013-04-02 01:24:00,
2013-04-01 21:29:00,58.9,42.7,29.92,North,0,0.0,0.0,55,0.00,,,0.00,WUHU216HW,2013-04-02 01:29:00,
2013-04-01 21:34:00,58.9,42.7,29.92,North,0,0.0,0.0,55,0.00,,,0.00,WUHU216HW,2013-04-02 01:34:00,
2013-04-01 21:39:00,58.5,42.9,29.92,North,0,0.0,0.0,56,0.00,,,0.00,WUHU216HW,2013-04-02 01:39:00,
2013-04-01 21:44:00,58.3,42.7,29.92,North,0,0.0,0.0,56,0.00,,,0.00,WUHU216HW,2013-04-02 01:44:00,
2013-04-01 21:49:00,58.3,42.7,29.93,North,0,0.0,0.0,56,0.00,,,0.00,WUHU216HW,2013-04-02 01:49:00,
2013-04-01 21:54:00,58.3,43.1,29.93,North,0,0.0,0.0,57,0.00,,,0.00,WUHU216HW,2013-04-02 01:54:00,
2013-04-01 21:59:00,58.0,42.9,29.93,North,0,0.0,0.0,57,0.00,,,0.00,WUHU216HW,2013-04-02 01:59:00,
2013-04-01 22:04:00,58.0,42.9,29.93,North,0,0.0,0.0,57,0.00,,,0.00,WUHU216HW,2013-04-02 02:04:00,
2013-04-01 22:09:00,58.0,42.9,29.93,North,0,0.0,0.0,57,0.00,,,0.00,WUHU216HW,2013-04-02 02:09:00,
2013-04-01 22:14:00,57.8,43.1,29.94,North,0,0.0,0.0,58,0.00,,,0.00,WUHU216HW,2013-04-02 02:14:00,
2013-04-01 22:19:00,57.6,42.5,29.93,North,0,0.0,0.0,57,0.00,,,0.00,WUHU216HW,2013-04-02 02:19:00,
2013-04-01 22:24:00,57.2,42.1,29.94,North,0,0.0,0.0,57,0.00,,,0.00,WUHU216HW,2013-04-02 02:24:00,
2013-04-01 22:29:00,57.1,42.9,29.94,North,0,0.0,0.0,59,0.00,,,0.00,WUHU216HW,2013-04-02 02:29:00,
2013-04-01 22:34:00,56.9,42.3,29.94,North,0,0.0,0.0,58,0.00,,,0.00,WUHU216HW,2013-04-02 02:34:00,
2013-04-01 22:39:00,56.9,42.3,29.94,North,0,0.0,0.0,58,0.00,,,0.00,WUHU216HW,2013-04-02 02:39:00,
2013-04-01 22:44:00,56.5,42.8,29.94,North,0,0.0,0.0,60,0.00,,,0.00,WUHU216HW,2013-04-02 02:44:00,
2013-04-01 22:49:00,56.3,42.2,29.94,North,0,0.0,0.0,59,0.00,,,0.00,WUHU216HW,2013-04-02 02:49:00,
2013-04-01 22:54:00,56.0,42.8,29.94,North,0,0.0,0.0,61,0.00,,,0.00,WUHU216HW,2013-04-02 02:54:00,
2013-04-01 22:59:00,55.6,42.4,29.94,North,0,0.0,0.0,61,0.00,,,0.00,WUHU216HW,2013-04-02 02:59:00,
2013-04-01 23:04:00,55.4,42.2,29.94,North,0,0.0,0.0,61,0.00,,,0.00,WUHU216HW,2013-04-02 03:04:00,
2013-04-01 23:09:00,55.4,42.2,29.94,North,0,0.0,0.0,61,0.00,,,0.00,WUHU216HW,2013-04-02 03:09:00,
2013-04-01 23:14:00,55.3,42.0,29.94,North,0,0.0,0.0,61,0.00,,,0.00,WUHU216HW,2013-04-02 03:14:00,
2013-04-01 23:19:00,55.3,42.4,29.94,North,0,0.0,0.0,62,0.00,,,0.00,WUHU216HW,2013-04-02 03:19:00,
2013-04-01 23:24:00,55.1,42.3,29.94,North,0,0.0,0.0,62,0.00,,,0.00,WUHU216HW,2013-04-02 03:24:00,
2013-04-01 23:29:00,55.1,42.3,29.94,North,0,0.0,0.0,62,0.00,,,0.00,WUHU216HW,2013-04-02 03:29:00,
2013-04-01 23:34:00,54.9,42.1,29.94,North,0,0.0,0.0,62,0.00,,,0.00,WUHU216HW,2013-04-02 03:34:00,
2013-04-01 23:39:00,54.9,42.5,29.94,North,0,0.0,0.0,63,0.00,,,0.00,WUHU216HW,2013-04-02 03:39:00,
2013-04-01 23:44:00,54.5,42.2,29.94,North,0,0.0,0.0,63,0.00,,,0.00,WUHU216HW,2013-04-02 03:44:00,
2013-04-01 23:49:00,54.4,42.4,29.94,North,0,0.0,0.0,64,0.00,,,0.00,WUHU216HW,2013-04-02 03:49:00,
2013-04-01 23:54:00,54.4,42.4,29.94,North,0,0.0,0.0,64,0.00,,,0.00,WUHU216HW,2013-04-02 03:54:00,
2013-04-01 23:59:00,54.2,43.0,29.94,North,0,0.0,0.0,66,0.00,,,0.00,WUHU216HW,2013-04-02 03:59:00,